Weather History for Ann Arbor, MI

Change the Weather History Date:

Sunday, January 5, 2014

  Actual Average Record
Temperature  
Mean Temperature 24 °F -  
Max Temperature 30 °F 31 °F 50 °F (2007)
Min Temperature 19 °F 16 °F -13 °F (1999)
Degree Days  
Heating Degree Days 40    
Moisture  
Dew Point 24 °F    
Average Humidity 89    
Maximum Humidity 93    
Minimum Humidity 74    
Precipitation  
Precipitation 0.32 in - - ()
Sea Level Pressure  
Sea Level Pressure 29.83 in    
Wind  
Wind Speed 4 mph (NNE)    
Max Wind Speed 23 mph    
Max Gust Speed 31 mph    
Visibility 2 miles    
Events Fog , Snow    
Averages and records for this station are not official NWS values.
T = Trace of Precipitation, MM = Missing Value Source: NWS Daily Summary

Daily Weather History Graph

Daily Weather History Graph

Search for Another Location

Airport:

Trip Planner

Search our weather history database for the weather conditions in past years. The results will help you decide how hot, cold, wet, or windy it might be!

Date:

Astronomy

Jan. 05, 2014 Rise Set
Actual Time 8:03 AM EST 5:17 PM EST
Civil Twilight 7:32 AM EST 5:48 PM EST
Nautical Twilight 6:57 AM EST 6:23 PM EST
Astronomical Twilight 6:23 AM EST 6:57 PM EST
Moon 10:39 AM EST (1/5) 10:50 PM EST (1/5)
Length of Visible Light 10h 16m
Length of Day
9h 13m
Waxing Crescent, 24% of the Moon is Illuminated
Jan 5
Waxing Crescent
Jan 7
First Quarter
Jan 15
Full
Jan 24
Last Quarter
Jan 30
New

Hourly Weather History & Observations

Time (EST) Temp. Windchill Dew Point Humidity Pressure Visibility Wind Dir Wind Speed Gust Speed Precip Events Conditions
12:03 AM 28.4 °F - 21.2 °F 74% 30.02 in 2.5 mi Calm Calm - 0.00 in Snow Light Snow
12:22 AM 26.6 °F - 23.0 °F 86% 30.02 in 5.0 mi Calm Calm - 0.00 in Snow Light Snow
12:53 AM 27.0 °F - 23.0 °F 85% 30.05 in 10.0 mi Calm Calm - 0.00 in   Overcast
1:53 AM 27.0 °F - 21.9 °F 81% 30.04 in 10.0 mi Calm Calm - N/A   Overcast
2:53 AM 28.0 °F - 21.9 °F 78% 30.05 in 10.0 mi Calm Calm - N/A   Overcast
3:53 AM 27.0 °F - 21.9 °F 81% 30.05 in 4.0 mi Calm Calm - 0.00 in Snow Light Snow
4:06 AM 26.6 °F - 23.0 °F 86% 30.01 in 2.5 mi Calm Calm - 0.01 in Snow Light Snow
4:19 AM 26.6 °F - 23.0 °F 86% 30.00 in 1.8 mi Calm Calm - 0.01 in Snow Light Snow
4:31 AM 26.6 °F - 24.8 °F 93% 30.00 in 1.2 mi Calm Calm - 0.01 in Snow Light Snow
4:46 AM 26.6 °F - 24.8 °F 93% 29.98 in 1.8 mi Calm Calm - 0.02 in Snow Light Snow
4:53 AM 27.0 °F - 24.1 °F 89% 30.02 in 2.0 mi Calm Calm - 0.02 in Snow Light Snow
4:58 AM 26.6 °F - 24.8 °F 93% 29.98 in 3.0 mi Calm Calm - 0.00 in Snow Light Snow
5:53 AM 27.0 °F - 24.1 °F 89% 30.02 in 4.0 mi Calm Calm - 0.00 in Snow Light Snow
6:24 AM 26.6 °F - 24.8 °F 93% 29.99 in 2.0 mi Calm Calm - 0.01 in Snow Light Snow
6:37 AM 26.6 °F - 24.8 °F 93% 29.99 in 4.0 mi Calm Calm - 0.01 in Snow Light Snow
6:46 AM 26.6 °F - 24.8 °F 93% 29.99 in 4.0 mi Calm Calm - 0.01 in   Overcast
6:53 AM 27.0 °F - 24.1 °F 89% 30.02 in 4.0 mi Calm Calm - 0.01 in   Overcast
7:07 AM 26.6 °F - 24.8 °F 93% 29.99 in 2.0 mi Calm Calm - 0.00 in Snow Light Snow
7:19 AM 26.6 °F - 24.8 °F 93% 29.99 in 1.5 mi Calm Calm - 0.00 in Snow Light Snow
7:35 AM 26.6 °F - 24.8 °F 93% 29.99 in 1.2 mi Calm Calm - 0.01 in Snow Light Snow
7:53 AM 27.0 °F - 25.0 °F 92% 30.02 in 1.0 mi Calm Calm - 0.02 in Snow Light Snow
8:21 AM 28.4 °F - 26.6 °F 93% 29.98 in 0.8 mi Calm Calm - 0.01 in Snow Light Snow
8:31 AM 26.6 °F - 24.8 °F 93% 29.99 in 1.0 mi Calm Calm - 0.01 in Snow Light Snow
8:46 AM 28.4 °F - 26.6 °F 93% 30.00 in 1.2 mi Calm Calm - 0.01 in Snow Light Snow
8:53 AM 28.0 °F - 26.1 °F 92% 30.03 in 1.2 mi Calm Calm - 0.01 in Snow Light Snow
9:20 AM 28.4 °F - 26.6 °F 93% 29.99 in 1.0 mi Calm Calm - 0.00 in Snow Light Snow
9:32 AM 28.4 °F 24.6 °F 26.6 °F 93% 29.99 in 0.8 mi East 3.5 mph - 0.00 in Snow Light Snow
9:53 AM 28.9 °F 23.9 °F 26.1 °F 89% 30.01 in 1.2 mi NE 4.6 mph - 0.00 in Snow Light Snow
10:17 AM 28.4 °F 23.3 °F 26.6 °F 93% 29.97 in 1.5 mi NE 4.6 mph - 0.00 in Snow Light Snow
10:29 AM 28.4 °F 23.3 °F 26.6 °F 93% 29.96 in 1.0 mi NE 4.6 mph - 0.00 in Snow Light Snow
10:53 AM 28.9 °F 23.9 °F 27.0 °F 92% 29.99 in 0.8 mi NE 4.6 mph - 0.01 in Snow Light Snow
11:21 AM 30.2 °F 24.3 °F 26.6 °F 86% 29.94 in 0.5 mi NE 5.8 mph - 0.01 in Fog , Snow Snow
11:53 AM 30.0 °F 24.1 °F 28.0 °F 92% 29.95 in 0.5 mi ENE 5.8 mph - 0.03 in Fog , Snow Snow
12:03 PM 30.2 °F 24.3 °F 28.4 °F 93% 29.90 in 0.5 mi ENE 5.8 mph - 0.01 in Fog , Snow Snow
12:53 PM 30.9 °F 26.2 °F 28.9 °F 92% 29.89 in 0.8 mi ENE 4.6 mph - 0.03 in Snow Light Snow
1:08 PM 30.2 °F 23.4 °F 28.4 °F 93% 29.84 in 1.2 mi NE 6.9 mph - 0.00 in Snow Light Snow
1:38 PM 30.2 °F 23.4 °F 28.4 °F 93% 29.81 in 0.8 mi NE 6.9 mph - 0.01 in Snow Light Snow
1:53 PM 30.9 °F 23.5 °F 28.9 °F 92% 29.82 in 1.0 mi NE 8.1 mph - 0.02 in Snow Light Snow
2:01 PM 30.2 °F 21.9 °F 28.4 °F 93% 29.77 in 0.5 mi NE 9.2 mph - 0.00 in Fog , Snow Snow
2:19 PM 30.2 °F 20.8 °F 28.4 °F 93% 29.76 in 1.0 mi NE 11.5 mph - 0.00 in Snow Light Snow
2:43 PM 30.2 °F 22.6 °F 28.4 °F 93% 29.75 in 0.5 mi NE 8.1 mph - 0.01 in Fog , Snow Snow
2:53 PM 30.9 °F 23.5 °F 28.0 °F 89% 29.78 in 0.8 mi NE 8.1 mph - 0.02 in Snow Light Snow
3:23 PM 30.2 °F 21.9 °F 28.4 °F 93% 29.73 in 0.5 mi NE 9.2 mph - 0.01 in Fog , Snow Snow
3:49 PM 30.2 °F 21.9 °F 28.4 °F 93% 29.73 in 0.2 mi NNE 9.2 mph - 0.03 in Fog , Snow Snow
3:53 PM 30.0 °F 21.1 °F 28.0 °F 92% 29.76 in 0.2 mi NNE 10.4 mph - 0.03 in Fog , Snow Snow
4:02 PM 30.2 °F 21.9 °F 26.6 °F 86% 29.74 in 0.2 mi North 9.2 mph - 0.00 in Fog , Snow Snow
4:53 PM 27.0 °F 16.1 °F 25.0 °F 92% 29.73 in 0.2 mi North 12.7 mph - 0.04 in Fog , Snow Snow
5:53 PM 26.1 °F 16.2 °F 24.1 °F 92% 29.72 in 0.5 mi North 10.4 mph - 0.04 in Fog , Snow Snow
6:16 PM 26.6 °F 16.8 °F 23.0 °F 86% 29.65 in 0.8 mi North 10.4 mph - 0.01 in Snow Light Snow
6:37 PM 26.6 °F 16.2 °F 23.0 °F 86% 29.67 in 1.0 mi North 11.5 mph - 0.02 in Snow Light Snow
6:50 PM 26.6 °F 16.2 °F 23.0 °F 86% 29.65 in 1.2 mi North 11.5 mph - 0.02 in Snow Light Snow
6:53 PM 26.1 °F 15.0 °F 23.0 °F 88% 29.68 in 1.0 mi North 12.7 mph - 0.02 in Snow Light Snow
7:04 PM 24.8 °F 12.9 °F 23.0 °F 93% 29.64 in 0.8 mi North 13.8 mph - 0.01 in Snow Light Snow
7:21 PM 24.8 °F 12.4 °F 21.2 °F 86% 29.64 in 1.0 mi North 15.0 mph - 0.01 in Snow Light Snow
7:51 PM 24.8 °F 12.4 °F 21.2 °F 86% 29.61 in 0.8 mi North 15.0 mph - 0.01 in Snow Light Snow
7:53 PM 25.0 °F 13.1 °F 21.9 °F 88% 29.64 in 0.8 mi North 13.8 mph - 0.01 in Snow Light Snow
8:04 PM 24.8 °F 11.9 °F 21.2 °F 86% 29.60 in 1.0 mi North 16.1 mph 24.2 mph 0.00 in Snow Light Snow
8:22 PM 24.8 °F 11.9 °F 21.2 °F 86% 29.59 in 1.5 mi North 16.1 mph 24.2 mph 0.00 in Snow Light Snow
8:53 PM 25.0 °F 11.7 °F 21.0 °F 85% 29.59 in 1.0 mi North 17.3 mph 25.3 mph 0.00 in Snow Light Snow
9:11 PM 24.8 °F 11.1 °F 21.2 °F 86% 29.55 in 0.8 mi North 18.4 mph 24.2 mph 0.01 in Snow Light Snow
9:25 PM 24.8 °F 10.7 °F 21.2 °F 86% 29.56 in 1.0 mi North 19.6 mph 26.5 mph 0.01 in   Mist
9:53 PM 21.9 °F 7.3 °F 19.0 °F 89% 29.57 in 0.8 mi North 18.4 mph 31.1 mph 0.01 in   Mist
10:07 PM 21.2 °F 6.0 °F 17.6 °F 86% 29.54 in 1.0 mi North 19.6 mph 26.5 mph N/A   Mist
10:20 PM 21.2 °F 6.8 °F 17.6 °F 86% 29.54 in 0.8 mi North 17.3 mph 28.8 mph N/A   Mist
10:44 PM 21.2 °F 5.6 °F 17.6 °F 86% 29.54 in 1.0 mi NNW 20.7 mph 26.5 mph N/A   Mist
10:53 PM 21.0 °F 4.6 °F 17.1 °F 85% 29.57 in 0.8 mi NNW 23.0 mph 31.1 mph N/A   Mist
11:11 PM 19.4 °F 4.1 °F 15.8 °F 86% 29.54 in 1.0 mi NNW 18.4 mph 27.6 mph N/A   Mist
11:18 PM 19.4 °F 3.6 °F 15.8 °F 86% 29.54 in 1.5 mi NNW 19.6 mph 28.8 mph N/A   Overcast
11:32 PM 19.4 °F 2.8 °F 15.8 °F 86% 29.55 in 1.2 mi NNW 21.9 mph 28.8 mph N/A   Haze
11:53 PM 19.0 °F 2.7 °F 15.1 °F 85% 29.60 in 1.5 mi NNW 20.7 mph 28.8 mph N/A   Overcast